Regional Weather Roundup
Issued by NWS

Home | Current Version | Previous Version | Graphics & Text | Print | Product List | Glossary On
Versions: 1 2 3 4 5 6 7 8 9 10 11 12 13 14 15 16 17 18 19 20 21 22 23 24 25 26 27 28 29 30 31 32 33 34 35 36 37 38 39 40 41 42 43 44 45 46 47 48 49 50
226
ASUS45 KBOU 230007
RWRCO

WEATHER ROUNDUP FOR COLORADO
NATIONAL WEATHER SERVICE DENVER/BOULDER CO
600 PM MDT TUE AUG 22 2017

NOTE: "FAIR" INDICATES FEW OR NO CLOUDS BELOW 12000 FEET WITH NO
SIGNIFICANT WEATHER AND/OR OBSTRUCTIONS TO VISIBILITY.

COZ001>005-013-030-031-230100-
...NORTHWEST COLORADO...

CITY           SKY/WX    TMP DP  RH WIND       PRES   REMARKS
CRAIG          FAIR      80  36  20 S15G21    30.26F
HAYDEN         FAIR      76  39  26 SW14      30.30S
MEEKER         FAIR      73  45  36 SE8       30.31F
RABBIT EARS PA FAIR      59  36  41 NW5       30.62R
STEAMBOAT SPGS PTSUNNY   75  38  26 W5        30.31S
WALDEN         FAIR      75  30  19 W6        30.40F
$$

COZ006>008-011-230100-
...WEST CENTRAL VALLEYS...

CITY           SKY/WX    TMP DP  RH WIND       PRES   REMARKS
GRAND JUNCTION CLOUDY    80  47  31 E30G37    30.20R
MONTROSE       FAIR      79  47  32 SW5       30.28F
EAGLE          FAIR      79  36  21 VRB5      30.32S
RIFLE          PTSUNNY   80  42  25 W16       30.26R
DELTA          FAIR      83  44  25 E8        30.23F
NUCLA          FAIR      77  43  29 SE14      30.29S
$$

COZ017>023-064>068-230100-
...SOUTHWEST COLORADO...

CITY           SKY/WX    TMP DP  RH WIND       PRES   REMARKS
DURANGO        FAIR      80  41  24 SW10G17   30.28F
CORTEZ         FAIR      82  43  25 W10       30.24S
PAGOSA SPRINGS PTSUNNY   75  39  27 CALM      30.38F
TELLURIDE      TSTM      55  49  82 CALM      30.55R
WOLF CREEK PAS CLOUDY    45  41  87 NW6       30.76R
$$

COZ009-010-012-014-032>034-037-058>063-230100-
...CENTRAL COLORADO...

CITY           SKY/WX    TMP DP  RH WIND       PRES   REMARKS
ASPEN          LGT RAIN  65  44  46 SE23G33   30.44R
BUENA VISTA    PTSUNNY   68  38  33 W20G28    30.43R
COPPER MTN     CLOUDY    54  32  43 S10       30.74R
BERTHOUD PASS  FAIR      48  43  81 W9        30.74F
COTTONWOOD PAS CLOUDY    55  41  58 SW20G33   30.57R
GUNNISON       CLOUDY    65  45  48 W10       30.45R
KREMMLING      FAIR      81  32  17 W13       30.35R
LEADVILLE      LGT RAIN  56  39  53 S3        30.56R
MONARCH PASS   DRIZZLE   46  39  76 NW7       30.84S
SALIDA         CLOUDY    71  49  46 SE14      30.45S
SUNLIGHT       FAIR      52  37  58 SW8       30.67S
WILKERSON PASS CLOUDY    57  43  58 SE6       30.70R
$$

COZ069>075-230100-
...SAN LUIS VALLEY/SANGRE DE CRISTO MOUNTAINS...

CITY           SKY/WX    TMP DP  RH WIND       PRES   REMARKS
ALAMOSA        FAIR      73  43  33 E14       30.39F
DEL NORTE      PTSUNNY   69  42  38 CALM      30.44R
LA VETA PASS   NOT AVBL
SAGUACHE         N/A    N/A N/A N/A MISG        N/A
$$

COZ035-036-038>040-230100-
...NORTHERN COLORADO FRONT RANGE...

CITY           SKY/WX    TMP DP  RH WIND       PRES   REMARKS
DENVER INTL AP PTSUNNY   82  55  39 S17       30.21F
DMNS CITY PARK   N/A     80  43  27 S7G16     30.20F
AURORA         PTSUNNY   78  54  43 S20       30.24F
FRONT RANGE AP FAIR      81  55  41 S16G23    30.24S
ERIE MUNI ARPT FAIR      81  57  44 N10       30.24F
BOULDER MUN AP FAIR      81  55  41 N9        30.20F
CENTENNIAL     PTSUNNY   74  52  46 S12       30.27S
BROOMFIELD     PTSUNNY   77  54  44 MISG      30.24F
FORT COLLINS   FAIR      77  60  55 CALM      30.19F
LONGMONT       FAIR      83  59  44 N6        30.21F
$$

COZ041-046-047-076>085-087-088-230100-
...PIKES PEAK/PALMER DIVIDE AND SOUTHERN FOOTHILLS...

CITY           SKY/WX    TMP DP  RH WIND       PRES   REMARKS
COLO. SPRINGS  PTSUNNY   75  54  47 S16       30.35F
A. F. ACADEMY  PTSUNNY   71  54  54 S13       30.36S
SCHRIEVER AFB  FAIR      71  52  52 S13       30.36S
CHEYENNE MTN   FAIR      67  54  62 S17       30.34S
ELLICOTT       FAIR     N/A N/A N/A S16       30.34S
FALCON         PTSUNNY   71  53  53 S15G26    30.40F
FORT CARSON    FAIR      76  54  47 S13       30.32S
LIMON          FAIR      72  56  57 S17       30.29S
MONUMENT HILL  CLOUDY    64  52  63 SW20G26   30.38F
CANON CITY     PTSUNNY   79  59  50 MISG      30.28S
WALSENBURG     FAIR      68  52  56 S16G25    30.36R
TRINIDAD       FAIR      63  55  75 W9        30.35F
$$

COZ042>045-048>051-090-091-230100-
...NORTHEAST COLORADO...

CITY           SKY/WX    TMP DP  RH WIND       PRES   REMARKS
GREELEY ARPT   FAIR      80  59  48 E10       30.16F
AKRON          FAIR      77  51  40 SE16      30.22F
BURLINGTON     FAIR      76  54  46 SE12      30.25F
WRAY           NOT AVBL
YUMA           FAIR      72  48  43 SE8       30.22S
STERLING       FAIR      79  54  41 S14       30.17S
HOLYOKE        FAIR      79  54  41 S10       30.20F
FORT MORGAN    FAIR      80  52  38 SE13      30.19F
$$

COZ086-089-092>099-230100-
...SOUTHEAST COLORADO...

CITY           SKY/WX    TMP DP  RH WIND       PRES   REMARKS
PUEBLO         FAIR      80  54  40 SE14      30.25S
LA JUNTA       FAIR      81  56  42 SE9       30.24F
LAMAR          FAIR      80  55  42 S9        30.20F
SPRINGFIELD      N/A     74  59  59 E7        30.25S
$$




USA.gov is the U.S. government's official web portal to all federal, state and local government web resources and services.